Wind_Speed
29 29 25 23 22 21 20 20 21 20 20 20 20 21 21 21 20 19 21 22 22 22 22 22 22 20 19 18 16 17 18 18 18 17 16 15 13 12 11 11 13 14 14
29 31 28 25 23 21 21 21 21 21 21 22 21 21 22 22 21 22 22 23 23 24 24 24 24 23 22 20 19 18 19 20 20 20 18 16 14 12 10 10 11 12 12
31 32 29 25 24 22 21 21 21 21 22 22 22 22 22 23 23 23 24 24 25 26 26 25 25 25 23 21 21 21 21 21 21 21 20 18 15 12 11 9 9 10 11
30 32 30 26 25 23 22 21 21 21 21 22 22 23 23 23 24 24 25 26 27 27 27 26 27 26 26 24 24 24 23 22 21 22 22 20 18 15 12 11 9 8 9
29 31 29 27 26 23 22 21 20 20 21 21 22 22 23 23 24 25 26 27 27 27 27 27 27 27 27 27 27 25 25 23 22 22 22 22 21 19 16 14 12 10 9
27 29 27 25 24 22 21 20 20 20 21 21 21 22 23 24 25 26 27 27 27 26 26 26 26 27 28 28 27 25 25 23 23 23 23 23 23 23 20 17 15 13 11
25 24 22 21 20 20 20 20 20 21 21 21 22 22 23 25 25 25 25 25 25 24 24 24 25 26 27 27 27 26 25 24 24 24 25 25 25 25 23 21 18 16 14
22 21 18 18 18 18 19 20 20 21 21 21 22 23 23 24 24 24 23 23 22 21 21 22 23 23 23 24 24 25 24 25 24 25 26 26 28 28 27 25 22 20 17
18 18 16 16 16 17 19 20 20 20 21 21 22 23 22 22 22 22 21 21 20 19 19 19 20 20 20 21 21 21 23 24 25 24 25 26 29 30 29 28 26 23 21
16 17 17 17 17 18 19 20 20 20 21 21 21 22 21 21 21 20 19 19 18 18 18 17 17 18 18 19 20 20 21 21 22 23 24 27 29 31 32 31 30 28 25
17 18 17 17 17 18 19 20 20 21 21 21 21 21 20 20 19 19 18 18 18 18 18 17 17 17 17 18 18 19 19 20 20 22 24 26 29 30 32 32 32 31 29
17 18 18 18 18 18 19 20 21 21 21 22 22 22 21 21 20 19 18 18 19 19 19 19 19 18 18 19 19 20 20 20 19 20 21 22 26 29 31 32 32 32 31
20 21 21 21 20 20 21 22 23 23 22 22 23 23 23 23 22 21 20 20 20 20 21 21 20 20 20 20 20 21 21 21 20 20 19 20 23 26 30 31 32 33 33
21 22 23 23 22 23 24 24 24 24 23 24 23 23 24 23 23 22 22 22 22 22 22 22 22 22 22 22 22 22 22 22 21 21 21 21 22 24 26 28 30 32 33
21 23 24 25 24 24 25 25 24 24 24 24 24 24 24 23 23 23 23 23 23 23 23 23 22 23 23 23 23 23 23 23 23 23 23 22 21 23 24 26 28 30 31
19 20 22 23 23 23 22 23 22 23 24 24 24 24 24 23 23 23 24 23 23 24 24 24 23 23 23 24 24 23 23 23 23 23 23 23 22 23 24 25 26 28 30
13 14 17 19 20 20 20 21 22 22 23 24 24 24 24 24 24 24 24 24 24 24 24 24 24 23 23 24 24 24 24 24 24 23 23 23 23 22 23 24 25 26 28
5 7 10 13 14 15 16 17 18 19 21 22 22 23 23 24 24 24 24 25 24 24 24 24 24 24 23 24 24 25 25 25 25 24 24 24 23 23 22 23 25 25 26
2 2 4 6 9 11 13 15 16 17 19 21 22 22 23 23 24 24 24 25 24 24 24 24 25 24 24 25 25 25 26 26 25 25 24 24 24 24 24 23 24 24 25
3 3 4 6 8 10 12 14 16 17 19 20 21 21 22 22 23 23 23 23 23 23 24 24 25 25 24 25 26 26 26 26 27 26 26 25 25 24 24 24 23 24 25
5 6 7 9 11 12 13 15 16 17 19 19 20 21 21 21 21 21 21 21 22 23 23 24 25 25 25 26 27 27 27 27 27 27 26 25 25 25 24 24 23 23 24
7 8 10 11 12 13 14 15 17 17 18 19 20 20 20 19 18 18 19 20 21 21 22 24 25 27 27 27 28 28 28 27 26 26 25 25 24 24 23 23 23 23 23
8 10 11 12 13 14 15 16 17 18 18 18 18 18 17 17 17 17 18 19 19 21 22 23 25 26 27 27 28 29 28 27 26 25 24 23 23 23 22 22 22 22 23
10 12 13 14 15 15 16 16 17 17 17 17 17 16 16 16 16 16 17 17 18 19 20 20 21 22 23 25 25 27 27 26 26 25 24 23 22 21 21 21 21 21 22
12 13 15 15 15 16 16 17 17 17 17 16 16 15 16 16 16 16 16 16 17 17 18 18 18 18 18 18 20 21 22 24 24 23 22 22 22 22 21 21 21 21 21
13 14 16 16 16 16 16 16 16 16 16 16 16 16 16 15 15 15 15 15 16 16 16 15 14 11 10 11 13 15 16 17 18 19 19 19 20 20 20 21 21 21 21
Wind_Direction
286 284 284 285 284 284 285 289 294 296 299 300 301 301 301 301 299 295 296 294 293 294 294 292 292 293 289 281 272 262 254 248 242 242 245 250 255 260 258 251 247 245 242
277 279 280 281 280 280 282 285 290 294 297 299 300 299 298 299 298 296 294 293 290 289 289 288 286 286 286 278 273 266 258 249 240 239 241 243 246 252 253 249 245 241 237
268 272 273 274 275 275 278 282 286 291 294 296 297 297 296 296 296 295 293 291 289 288 286 284 281 280 279 276 272 268 264 254 242 236 236 235 236 242 245 245 242 238 234
259 262 265 265 266 269 273 278 284 290 293 295 295 296 296 296 296 296 294 291 289 286 284 281 277 274 272 271 272 270 268 262 249 239 234 233 231 232 237 239 239 237 233
253 255 259 259 261 265 270 276 282 288 292 294 295 296 296 296 297 296 294 291 288 285 282 277 272 270 269 268 269 270 268 264 256 247 237 232 229 229 232 234 235 235 234
250 251 255 255 258 263 270 276 283 289 292 294 294 296 296 297 297 297 294 291 288 285 281 276 271 267 266 265 264 266 265 263 263 257 246 236 230 229 229 232 233 235 236
251 251 251 253 256 263 270 279 286 289 291 292 294 295 296 297 297 296 294 292 290 286 283 277 271 267 264 262 260 264 266 263 263 263 252 241 234 230 229 229 231 233 236
252 250 249 251 256 264 275 283 286 288 290 292 294 296 298 299 298 296 294 292 290 287 284 277 271 267 263 261 259 261 265 264 264 263 253 245 238 231 230 228 228 229 232
261 256 256 259 263 270 277 282 284 288 290 293 296 298 300 300 299 297 294 292 289 286 284 279 272 267 263 260 261 262 264 264 261 260 251 245 241 234 230 229 228 228 230
260 259 257 259 265 271 276 279 283 287 291 293 297 299 301 303 302 299 295 293 290 286 283 280 275 270 266 263 261 264 265 263 258 255 254 249 245 239 233 231 229 230 233
249 254 254 262 266 270 276 281 286 289 290 292 296 299 302 304 303 300 295 292 289 286 284 281 277 273 269 266 265 266 266 263 260 259 257 251 245 240 237 234 233 233 234
252 255 263 268 270 274 280 284 288 291 292 292 294 298 301 303 302 300 297 293 289 286 283 281 277 273 270 267 265 266 268 264 264 263 260 253 245 242 238 236 236 236 235
259 262 265 270 276 280 284 286 288 289 291 292 293 296 300 300 298 297 296 293 290 287 284 281 277 273 270 267 267 266 267 266 264 261 260 258 251 244 239 238 239 239 239
263 263 264 267 273 279 282 284 285 288 289 292 295 297 299 299 296 294 293 292 290 288 284 281 278 275 272 269 268 267 266 266 266 263 260 261 255 246 243 242 241 241 240
263 262 263 266 269 274 278 281 283 286 289 292 295 298 298 298 296 293 291 291 289 287 285 282 278 276 274 271 268 266 266 267 267 266 263 262 259 249 246 245 244 243 241
264 261 260 262 266 268 271 276 279 282 286 291 295 297 297 297 296 294 292 291 289 286 285 283 280 277 274 271 269 267 266 267 267 266 265 264 261 255 250 248 249 247 244
268 262 260 263 263 266 269 273 277 282 285 290 295 296 296 296 296 295 294 291 288 286 284 283 281 277 274 271 268 267 266 265 264 265 265 265 263 261 254 250 249 250 248
274 258 257 262 265 267 273 279 283 286 290 294 296 297 297 296 295 294 292 290 288 286 284 281 278 277 274 271 269 267 266 265 265 264 263 263 262 262 260 256 253 252 251
38 317 288 281 281 283 287 292 294 294 295 297 298 298 297 296 295 293 291 289 287 285 282 279 276 274 272 271 268 266 265 264 264 263 263 261 261 259 258 257 256 254 253
28 353 328 311 302 300 300 301 301 299 299 300 301 300 299 298 297 294 292 290 288 286 282 278 275 272 270 268 266 265 264 263 262 262 261 259 259 258 258 256 256 255 254
356 345 336 328 320 314 311 309 307 305 305 304 303 302 301 300 299 296 293 292 290 288 284 280 276 272 269 266 264 263 262 261 261 260 260 259 258 258 258 256 255 255 253
345 338 331 326 322 318 314 312 310 309 308 306 305 305 304 303 301 299 297 296 294 291 288 284 279 273 268 263 261 261 260 259 260 258 257 258 257 257 256 255 253 253 252
335 330 327 324 321 318 316 314 312 311 310 309 308 308 307 307 306 305 304 302 299 297 293 289 284 276 269 263 259 258 257 255 257 256 256 255 255 253 252 253 251 250 251
331 328 326 323 320 318 317 315 314 314 315 313 312 312 313 313 312 311 311 310 308 305 301 297 291 282 272 264 259 256 253 252 253 254 253 252 251 250 250 252 250 250 250
332 329 327 325 324 322 320 319 318 319 319 319 318 317 316 316 315 315 316 317 319 318 314 310 303 292 278 266 257 253 249 249 249 249 249 248 249 249 249 248 248 248 250
333 331 330 329 328 327 326 326 326 326 325 323 321 319 317 316 316 317 320 322 325 327 329 327 322 307 286 267 254 246 242 242 243 244 245 245 245 245 245 245 246 248 251
Height
5853 5852 5853 5853 5853 5852 5851 5850 5849 5849 5849 5848 5847 5847 5846 5845 5845 5844 5843 5842 5841 5841 5840 5839 5838 5838 5838 5838 5838 5838 5839 5840 5841 5842 5843 5844 5845 5845 5845 5846 5847 5849 5851
5847 5845 5847 5847 5847 5848 5847 5846 5845 5844 5844 5843 5843 5842 5842 5841 5840 5839 5839 5838 5837 5836 5836 5835 5834 5834 5834 5834 5834 5834 5835 5835 5837 5838 5840 5841 5843 5843 5843 5844 5845 5846 5847
5841 5839 5841 5842 5842 5842 5842 5841 5841 5840 5839 5839 5838 5838 5837 5835 5835 5834 5833 5832 5831 5830 5830 5829 5829 5829 5829 5829 5830 5830 5831 5831 5832 5834 5836 5838 5839 5840 5841 5841 5842 5843 5845
5834 5832 5834 5836 5836 5836 5836 5836 5836 5836 5835 5834 5833 5832 5831 5830 5829 5827 5826 5825 5824 5823 5823 5823 5823 5823 5823 5823 5824 5825 5826 5826 5827 5829 5831 5834 5836 5837 5838 5840 5840 5842 5843
5826 5825 5827 5829 5830 5830 5831 5831 5831 5831 5830 5829 5828 5827 5826 5824 5823 5821 5820 5818 5817 5816 5815 5815 5816 5816 5817 5817 5818 5819 5820 5821 5822 5824 5826 5828 5831 5833 5835 5837 5838 5840 5841
5818 5818 5820 5822 5823 5824 5825 5826 5826 5826 5825 5824 5823 5822 5820 5818 5816 5815 5813 5811 5809 5808 5808 5807 5808 5809 5810 5811 5812 5813 5814 5815 5817 5818 5820 5823 5826 5829 5832 5833 5835 5837 5839
5811 5812 5814 5816 5817 5819 5820 5820 5820 5820 5819 5818 5817 5816 5814 5812 5810 5808 5806 5804 5803 5802 5801 5800 5801 5801 5802 5803 5805 5807 5807 5809 5810 5812 5814 5817 5820 5824 5827 5830 5832 5834 5836
5805 5807 5808 5810 5812 5813 5814 5815 5815 5815 5814 5812 5811 5809 5808 5806 5804 5802 5800 5799 5797 5796 5795 5794 5794 5794 5795 5797 5798 5800 5801 5803 5804 5806 5808 5811 5814 5818 5821 5824 5827 5830 5832
5800 5801 5803 5805 5807 5808 5809 5810 5809 5809 5808 5806 5805 5803 5802 5800 5798 5796 5795 5793 5792 5791 5790 5789 5789 5789 5790 5791 5793 5794 5796 5796 5798 5799 5801 5804 5808 5811 5815 5819 5822 5825 5828
5795 5796 5798 5800 5802 5803 5804 5804 5804 5803 5802 5801 5799 5798 5796 5794 5793 5791 5790 5789 5787 5786 5785 5785 5785 5785 5785 5787 5788 5789 5790 5791 5792 5793 5795 5797 5801 5804 5808 5812 5816 5819 5822
5790 5790 5791 5795 5797 5798 5798 5798 5798 5798 5797 5795 5794 5793 5791 5789 5788 5786 5785 5784 5783 5782 5781 5781 5781 5781 5781 5782 5783 5784 5785 5785 5786 5788 5789 5790 5793 5797 5801 5805 5809 5812 5816
5787 5787 5787 5790 5792 5793 5793 5793 5793 5792 5791 5790 5789 5788 5786 5785 5783 5782 5780 5779 5778 5778 5777 5777 5776 5777 5777 5777 5778 5779 5780 5780 5781 5782 5783 5784 5787 5790 5794 5797 5801 5805 5809
5784 5785 5786 5787 5787 5788 5788 5787 5787 5786 5786 5785 5783 5782 5781 5780 5778 5777 5776 5775 5774 5773 5772 5772 5772 5772 5772 5773 5773 5774 5775 5776 5777 5778 5778 5779 5781 5784 5787 5791 5794 5798 5801
5779 5780 5781 5782 5782 5782 5782 5782 5781 5780 5779 5778 5777 5777 5776 5774 5773 5771 5770 5769 5768 5767 5766 5766 5766 5766 5767 5767 5768 5768 5769 5770 5771 5772 5774 5775 5776 5778 5780 5784 5787 5790 5794
5772 5774 5775 5775 5776 5777 5776 5776 5776 5775 5774 5773 5773 5772 5770 5768 5767 5765 5764 5763 5762 5761 5760 5760 5760 5760 5760 5761 5762 5763 5763 5764 5765 5766 5768 5769 5770 5772 5774 5777 5780 5783 5786
5766 5767 5768 5769 5770 5770 5771 5771 5770 5770 5769 5768 5767 5766 5764 5762 5761 5759 5758 5757 5756 5755 5754 5753 5753 5754 5754 5754 5755 5756 5757 5759 5760 5761 5762 5763 5765 5766 5768 5770 5773 5776 5779
5761 5762 5763 5764 5764 5764 5765 5765 5765 5765 5763 5762 5761 5760 5758 5756 5755 5753 5752 5750 5749 5748 5747 5747 5746 5747 5747 5747 5748 5749 5751 5752 5754 5755 5756 5758 5759 5760 5761 5764 5766 5769 5771
5758 5758 5758 5760 5760 5760 5761 5761 5761 5760 5759 5757 5756 5754 5752 5750 5749 5747 5745 5744 5742 5741 5741 5740 5740 5740 5740 5741 5741 5742 5744 5745 5747 5748 5750 5752 5753 5754 5756 5758 5760 5762 5764
5757 5757 5757 5758 5758 5758 5758 5758 5757 5756 5755 5753 5751 5749 5747 5745 5743 5741 5739 5737 5736 5735 5734 5733 5732 5733 5734 5734 5735 5736 5737 5738 5739 5741 5743 5745 5746 5748 5750 5751 5753 5755 5757
5757 5757 5757 5757 5756 5756 5755 5754 5753 5752 5750 5748 5746 5744 5741 5739 5737 5735 5732 5730 5729 5728 5727 5726 5725 5725 5726 5727 5727 5728 5730 5731 5732 5734 5736 5738 5739 5741 5743 5745 5746 5748 5749
5757 5756 5756 5755 5754 5753 5752 5750 5749 5747 5745 5743 5741 5739 5736 5734 5731 5729 5727 5725 5723 5721 5720 5719 5718 5718 5719 5719 5719 5721 5722 5724 5725 5727 5729 5731 5732 5734 5736 5738 5740 5741 5743
5756 5756 5755 5753 5752 5750 5749 5747 5745 5743 5741 5739 5736 5734 5731 5729 5726 5724 5722 5719 5717 5715 5713 5712 5710 5710 5710 5711 5711 5712 5714 5716 5718 5719 5722 5724 5725 5727 5729 5731 5733 5734 5736
5756 5755 5753 5752 5750 5748 5746 5744 5741 5739 5737 5734 5732 5730 5727 5725 5722 5720 5717 5714 5712 5709 5707 5704 5702 5701 5701 5701 5702 5704 5706 5708 5710 5713 5715 5717 5719 5721 5723 5724 5726 5728 5729
5755 5754 5752 5750 5748 5745 5743 5740 5738 5735 5733 5730 5728 5726 5723 5721 5718 5716 5713 5710 5707 5704 5700 5697 5694 5692 5691 5692 5694 5696 5698 5701 5704 5706 5708 5711 5713 5715 5717 5718 5720 5721 5723
5754 5752 5750 5748 5745 5743 5740 5737 5734 5732 5729 5727 5725 5722 5720 5717 5715 5712 5709 5706 5703 5699 5695 5691 5688 5685 5684 5685 5686 5688 5691 5694 5697 5700 5702 5705 5707 5709 5711 5712 5714 5716 5717
5754 5751 5749 5746 5743 5740 5737 5734 5731 5729 5726 5724 5722 5719 5716 5714 5711 5708 5706 5702 5699 5696 5692 5687 5684 5681 5680 5680 5681 5683 5686 5689 5691 5694 5697 5699 5701 5703 5705 5706 5708 5709 5711